User: anonymous   Login
Location: Copper Breaks State Park
(34.1132°N, 99.7492°W)
Time: 06:04:23
(UTC-05:00)
Language:

SL-16 R/B - Orbit

View from above orbital plane
View from above orbital plane
View from above satellite
View from above satellite

Ground track
Ground track

The orbit data is extracted from the following two-line orbital elements,

1 27006U 01056F   17291.47991358 -.00000048 +00000-0 -58365-5 0  9999
2 27006 099.3336 068.9745 0014460 352.0681 049.1145 13.70968684793307
Epoch (UTC): 18 October 2017 11:31:04
Eccentricity: 0.0014460
inclination: 99.3336°
perigee height: 985 km
apogee height: 1007 km
right ascension of ascending node: 68.9745°
argument of perigee: 352.0681°
revolutions per day: 13.70968684
mean anomaly at epoch: 49.1145°
orbit number at epoch: 79330

The dashed part of the orbit path shows where the satellite is in the earth's shadow,  

DLR